When you browse on this site, cookies collect data to enhance your experience and personalize the content and advertising you see.
Visit our Privacy Policy to learn more. By continuing to use the site, you agree to this use of cookies and data.
  • Em Portugal
  • Lista de países
  • Para 7 dias
  • Temperatura da água
  • Mapas de satélite
  • Mapa do tempo
  • Widgets de tempo
  • user-avatar
    Iniciar Sessão

    Previsão horária em Haskovo

    Hoje, 11 Dezembro, Terça-feira

    Tempo Temperatura Precipitação Vento Pressão Humidade
    00:00 +3°C° 0.1 mm 4 m/s 736 mmHg 75%
    01:00 +3°C° 0.1 mm 4 m/s 736 mmHg 73%
    02:00 +3°C° 0.1 mm 4 m/s 736 mmHg 71%
    03:00 +3°C° 0 mm 4 m/s 736 mmHg 71%
    04:00 +1°C° 0 mm 4 m/s 737 mmHg 70%
    05:00 +1°C° 0 mm 4 m/s 737 mmHg 69%
    06:00 +2°C° 0 mm 3 m/s 737 mmHg 69%
    07:00 +1°C° 0 mm 3 m/s 737 mmHg 69%
    08:00 +1°C° 0 mm 3 m/s 738 mmHg 69%
    09:00 +2°C° 0 mm 3 m/s 738 mmHg 63%
    10:00 +3°C° 0 mm 4 m/s 738 mmHg 58%
    11:00 +5°C° 0 mm 4 m/s 739 mmHg 52%
    12:00 +5°C° 0 mm 4 m/s 739 mmHg 51%
    13:00 +7°C° 0 mm 3 m/s 739 mmHg 50%
    14:00 +7°C° 0 mm 3 m/s 739 mmHg 49%
    15:00 +5°C° 0 mm 3 m/s 739 mmHg 53%
    16:00 +5°C° 0 mm 2 m/s 740 mmHg 57%
    17:00 +4°C° 0 mm 2 m/s 740 mmHg 61%
    18:00 +4°C° 0 mm 2 m/s 740 mmHg 63%
    19:00 +3°C° 0 mm 2 m/s 740 mmHg 65%
    20:00 +3°C° 0 mm 2 m/s 740 mmHg 67%
    21:00 +2°C° 0 mm 2 m/s 740 mmHg 68%
    22:00 +2°C° 0 mm 2 m/s 741 mmHg 68%
    23:00 +2°C° 0 mm 2 m/s 741 mmHg 69%

    Amanhã, 12 Dezembro, Quarta-feira

    Tempo Temperatura Precipitação Vento Pressão Humidade
    00:00 +1°C° 0 mm 2 m/s 741 mmHg 69%
    01:00 +1°C° 0 mm 2 m/s 741 mmHg 69%
    02:00 -1°C° 0 mm 2 m/s 741 mmHg 69%
    03:00 -1°C° 0 mm 2 m/s 741 mmHg 68%
    04:00 -1°C° 0 mm 2 m/s 741 mmHg 68%
    05:00 -1°C° 0 mm 2 m/s 741 mmHg 67%
    06:00 -1°C° 0 mm 2 m/s 741 mmHg 66%
    07:00 -1°C° 0 mm 2 m/s 741 mmHg 65%
    08:00 -1°C° 0 mm 2 m/s 742 mmHg 64%
    09:00 +1°C° 0 mm 3 m/s 742 mmHg 59%
    10:00 +1°C° 0 mm 4 m/s 742 mmHg 54%
    11:00 +4°C° 0 mm 4 m/s 743 mmHg 49%
    12:00 +4°C° 0 mm 4 m/s 743 mmHg 48%
    13:00 +5°C° 0 mm 4 m/s 743 mmHg 46%
    14:00 +5°C° 0 mm 3 m/s 742 mmHg 45%
    15:00 +4°C° 0 mm 3 m/s 743 mmHg 49%
    16:00 +4°C° 0 mm 2 m/s 743 mmHg 54%
    17:00 +4°C° 0 mm 1 m/s 743 mmHg 59%
    18:00 +2°C° 0 mm 2 m/s 743 mmHg 61%
    19:00 +2°C° 0 mm 2 m/s 743 mmHg 63%
    20:00 +1°C° 0 mm 2 m/s 744 mmHg 65%
    21:00 +1°C° 0 mm 2 m/s 744 mmHg 66%
    22:00 +2°C° 0 mm 1 m/s 744 mmHg 66%
    23:00 +2°C° 0 mm 1 m/s 744 mmHg 67%

    Depois de amanhã, 13 Dezembro, Quinta-feira

    Tempo Temperatura Precipitação Vento Pressão Humidade
    00:00 +2°C° 0 mm 1 m/s 744 mmHg 67%
    01:00 +2°C° 0 mm 1 m/s 744 mmHg 67%
    02:00 +2°C° 0 mm 1 m/s 744 mmHg 67%
    03:00 +1°C° 0 mm 1 m/s 744 mmHg 66%
    04:00 +1°C° 0 mm 1 m/s 744 mmHg 66%
    05:00 +1°C° 0 mm 1 m/s 744 mmHg 66%
    06:00 +1°C° 0 mm 1 m/s 744 mmHg 65%
    07:00 +1°C° 0 mm 1 m/s 744 mmHg 65%
    08:00 +1°C° 0 mm 1 m/s 744 mmHg 64%
    09:00 +3°C° 0 mm 1 m/s 744 mmHg 59%
    10:00 +4°C° 0 mm 1 m/s 744 mmHg 54%
    11:00 +6°C° 0 mm 1 m/s 744 mmHg 49%
    12:00 +6°C° 0 mm 1 m/s 744 mmHg 47%
    13:00 +6°C° 0 mm 2 m/s 743 mmHg 46%
    14:00 +6°C° 0 mm 2 m/s 742 mmHg 44%
    15:00 +5°C° 0 mm 2 m/s 742 mmHg 51%
    16:00 +5°C° 0 mm 2 m/s 742 mmHg 57%
    17:00 +5°C° 0 mm 1 m/s 742 mmHg 63%
    18:00 +3°C° 0.3 mm 2 m/s 742 mmHg 68%
    19:00 +3°C° 0.3 mm 2 m/s 741 mmHg 73%
    20:00 +3°C° 0.3 mm 2 m/s 741 mmHg 79%
    21:00 +4°C° 0.5 mm 1 m/s 741 mmHg 81%
    22:00 +4°C° 0.5 mm 1 m/s 741 mmHg 84%
    23:00 +4°C° 0.5 mm 1 m/s 740 mmHg 87%

    14 Dezembro, Sexta-feira

    Tempo Temperatura Precipitação Vento Pressão Humidade
    00:00 +3°C° 0.3 mm 1 m/s 740 mmHg 88%
    01:00 +3°C° 0.3 mm 1 m/s 740 mmHg 89%
    02:00 +3°C° 0.3 mm 1 m/s 740 mmHg 90%
    03:00 +3°C° 0.1 mm 1 m/s 740 mmHg 91%
    04:00 +2°C° 0.1 mm 2 m/s 740 mmHg 92%
    05:00 +2°C° 0.1 mm 2 m/s 741 mmHg 92%
    06:00 +2°C° 0 mm 2 m/s 741 mmHg 92%
    07:00 +1°C° 0 mm 2 m/s 742 mmHg 91%
    08:00 +1°C° 0 mm 2 m/s 742 mmHg 91%
    09:00 +2°C° 0 mm 2 m/s 743 mmHg 87%
    10:00 +3°C° 0 mm 2 m/s 743 mmHg 82%
    11:00 +4°C° 0 mm 2 m/s 744 mmHg 78%
    12:00 +5°C° 0 mm 2 m/s 744 mmHg 75%
    13:00 +5°C° 0 mm 2 m/s 744 mmHg 73%
    14:00 +6°C° 0 mm 2 m/s 744 mmHg 71%
    15:00 +6°C° 0 mm 1 m/s 744 mmHg 74%
    16:00 +5°C° 0 mm 1 m/s 745 mmHg 77%
    17:00 +4°C° 0 mm 1 m/s 745 mmHg 80%
    18:00 +4°C° 0 mm 1 m/s 745 mmHg 82%
    19:00 +3°C° 0 mm 1 m/s 746 mmHg 84%
    20:00 +3°C° 0 mm 1 m/s 746 mmHg 86%
    21:00 +3°C° 0 mm 1 m/s 746 mmHg 86%
    22:00 +2°C° 0 mm 1 m/s 746 mmHg 87%
    23:00 +2°C° 0 mm 1 m/s 747 mmHg 88%

    15 Dezembro, Sábado

    Tempo Temperatura Precipitação Vento Pressão Humidade
    00:00 +2°C° 0 mm 1 m/s 746 mmHg 88%
    01:00 +2°C° 0 mm 1 m/s 746 mmHg 88%
    02:00 +2°C° 0 mm 1 m/s 746 mmHg 88%
    03:00 +2°C° 0.1 mm 1 m/s 746 mmHg 88%
    04:00 +2°C° 0.1 mm 1 m/s 746 mmHg 87%
    05:00 +2°C° 0.1 mm 1 m/s 746 mmHg 87%
    06:00 +2°C° 0.4 mm 1 m/s 746 mmHg 87%
    07:00 +2°C° 0.4 mm 1 m/s 746 mmHg 88%
    08:00 +2°C° 0.4 mm 1 m/s 746 mmHg 89%
    09:00 +3°C° 0.5 mm 1 m/s 746 mmHg 90%
    10:00 +2°C° 0.5 mm 2 m/s 746 mmHg 91%
    11:00 +2°C° 0.5 mm 2 m/s 747 mmHg 92%
    12:00 +2°C° 0.4 mm 2 m/s 746 mmHg 93%
    13:00 +3°C° 0.4 mm 2 m/s 746 mmHg 94%
    14:00 +4°C° 0.4 mm 1 m/s 745 mmHg 95%
    15:00 +4°C° 0.7 mm 1 m/s 745 mmHg 95%
    16:00 +4°C° 0.7 mm 1 m/s 745 mmHg 96%
    17:00 +4°C° 0.7 mm 1 m/s 745 mmHg 96%
    18:00 +4°C° 0.8 mm 1 m/s 745 mmHg 96%
    19:00 +4°C° 0.8 mm 1 m/s 745 mmHg 96%
    20:00 +3°C° 0.8 mm 2 m/s 745 mmHg 97%
    21:00 +3°C° 0.6 mm 2 m/s 745 mmHg 97%
    22:00 +3°C° 0.6 mm 2 m/s 745 mmHg 97%
    23:00 +4°C° 0.6 mm 2 m/s 745 mmHg 97%

    16 Dezembro, Domingo

    Tempo Temperatura Precipitação Vento Pressão Humidade
    00:00 +4°C° 0.6 mm 2 m/s 744 mmHg 97%
    01:00 +4°C° 0.6 mm 2 m/s 744 mmHg 97%
    02:00 +4°C° 0.6 mm 2 m/s 744 mmHg 97%
    03:00 +4°C° 0.5 mm 2 m/s 744 mmHg 96%
    04:00 +4°C° 0.5 mm 2 m/s 744 mmHg 96%
    05:00 +4°C° 0.5 mm 2 m/s 744 mmHg 96%
    06:00 +3°C° 0.5 mm 3 m/s 744 mmHg 95%
    07:00 +3°C° 0.5 mm 3 m/s 744 mmHg 95%
    08:00 +3°C° 0.5 mm 3 m/s 744 mmHg 94%
    09:00 +3°C° 0.5 mm 3 m/s 744 mmHg 94%
    10:00 +3°C° 0.5 mm 3 m/s 744 mmHg 93%
    11:00 +3°C° 0.5 mm 3 m/s 744 mmHg 92%
    12:00 +3°C° 0.4 mm 3 m/s 744 mmHg 91%
    13:00 +3°C° 0.4 mm 4 m/s 744 mmHg 90%
    14:00 +3°C° 0.4 mm 4 m/s 744 mmHg 89%
    15:00 +1°C° 0.3 mm 4 m/s 744 mmHg 88%
    16:00 +1°C° 0.3 mm 4 m/s 745 mmHg 88%
    17:00 +1°C° 0.3 mm 4 m/s 745 mmHg 87%
    18:00 0°C° 0.5 mm 4 m/s 745 mmHg 88%
    19:00 0°C° 0.5 mm 4 m/s 746 mmHg 88%
    20:00 0°C° 0.5 mm 4 m/s 746 mmHg 89%
    21:00 -1°C° 0.4 mm 4 m/s 746 mmHg 89%
    22:00 -1°C° 0.4 mm 4 m/s 746 mmHg 89%
    23:00 0°C° 0.4 mm 3 m/s 747 mmHg 89%
    Mostrar mais